Kuantan, Malaysia

5:17 AM +08 on October 20, 2019 (GMT +0800)
Kuantan

Weather History for WMKD - August, 2019

Change the Weather History Date:

Sunday, August 11, 2019

  Actual Average Record
Temperature  
Mean Temperature 82 °F -  
Max Temperature 93 °F 90 °F - ()
Min Temperature 72 °F 72 °F - ()
Cooling Degree Days 18    
Growing Degree Days 32 (Base 50)    
Moisture  
Dew Point 78 °F    
Average Humidity 83    
Maximum Humidity 95    
Minimum Humidity 58    
Precipitation  
Precipitation 0.00 in 0.26 in - ()
Sea Level Pressure  
Sea Level Pressure 29.77 in    
Wind  
Wind Speed 2 mph ()    
Max Wind Speed 7 mph    
Max Gust Speed -    
Visibility 4.9 miles    
Events      
T = Trace of Precipitation, MM = Missing Value Source: Averaged Metar Reports

Daily Weather History Graph

Daily Weather History Graph

Search for Another Location

Airport or City:

Astronomy

Aug. 11, 2019 Rise Set
Actual Time 7:04 AM +08 7:20 PM +08
Civil Twilight 6:43 AM +08 7:41 PM +08
Nautical Twilight 6:18 AM +08 8:06 PM +08
Astronomical Twilight 5:53 AM +08 8:31 PM +08
Moon 4:03 PM +08 (8/11) 3:23 AM +08 (8/11)
Length of Visible Light 12h 58m
Length of Day
12h 15m
Waxing Gibbous, 83% of the Moon is Illuminated
Aug 11
Waxing Gibbous
Aug 15
Full
Aug 23
Last Quarter
Aug 30
New
Sep 6
First Quarter

Hourly Weather History & Observations

Time (+08) Temp. Heat Index Dew Point Humidity Pressure Visibility Wind Dir Wind Speed Gust Speed Precip Events Conditions
12:00 AM 80.6 °F 87.1 °F 77.0 °F 89% 29.83 in 3.7 mi Calm Calm - N/A   Mostly Cloudy
1:00 AM 78.8 °F - 77.0 °F 94% 29.80 in 3.7 mi Calm Calm - N/A   Mostly Cloudy
2:00 AM 77 °F - 76 °F 95% 29.79 in 4 mi Calm Calm - -   Haze
2:00 AM 77.0 °F - 75.2 °F 94% 29.77 in 3.7 mi Calm Calm - N/A   Mostly Cloudy
3:00 AM 78.8 °F - 75.2 °F 89% 29.77 in 5.0 mi Calm Calm - N/A   Mostly Cloudy
4:00 AM 78.8 °F - 75.2 °F 89% 29.77 in 5.0 mi Calm Calm - N/A   Mostly Cloudy
5:00 AM 78 °F - 75 °F 89% 29.78 in 5 mi Calm Calm - -   Haze
6:00 AM 77.0 °F - 75.2 °F 94% 29.77 in 3.7 mi Calm Calm - N/A   Mostly Cloudy
7:00 AM 77.0 °F - 75.2 °F 94% 29.80 in 2.5 mi Calm Calm - N/A   Haze
8:00 AM 78 °F - 75 °F 89% 29.83 in 4 mi Calm Calm - -   Haze
8:00 AM 78.8 °F - 75.2 °F 89% 29.83 in 3.7 mi Calm Calm - N/A   Mostly Cloudy
9:00 AM 82.4 °F 90.9 °F 77.0 °F 84% 29.83 in 3.7 mi Variable 3.5 mph - N/A   Mostly Cloudy
10:00 AM 84.2 °F 94.1 °F 77.0 °F 79% 29.83 in 3.7 mi Variable 4.6 mph - N/A   Mostly Cloudy
11:00 AM 87.8 °F 99.7 °F 77.0 °F 70% 29.83 in 5.6 mi Variable 3.5 mph - N/A   Mostly Cloudy
12:00 PM 89.6 °F 104.7 °F 78.8 °F 70% 29.83 in 5.6 mi Variable 5.8 mph - N/A   Mostly Cloudy
1:00 PM 89.6 °F 104.7 °F 78.8 °F 70% 29.80 in 6.2 mi Variable 4.6 mph - N/A   Mostly Cloudy
2:00 PM 92 °F - 79 °F 58% 29.76 in 6 mi SSW 5.8 mph - -   Haze
2:00 PM 91.4 °F 107.2 °F 78.8 °F 66% 29.74 in 6.2 mi Variable 5.8 mph - N/A   Mostly Cloudy
3:00 PM 89.6 °F 108.2 °F 80.6 °F 75% 29.71 in 6.2 mi Variable 6.9 mph - N/A   Mostly Cloudy
4:00 PM 89.6 °F 108.2 °F 80.6 °F 75% 29.68 in 6.2 mi Variable 5.8 mph - N/A   Mostly Cloudy
5:00 PM 89 °F - 81 °F 70% 29.69 in 6 mi East 6.9 mph - -   Haze
5:00 PM 89.6 °F 108.2 °F 80.6 °F 75% 29.68 in 5.6 mi Variable 6.9 mph - N/A   Mostly Cloudy
6:00 PM 87.8 °F 104.9 °F 80.6 °F 79% 29.68 in 5.0 mi Variable 6.9 mph - N/A   Mostly Cloudy
7:00 PM 84.2 °F 96.1 °F 78.8 °F 84% 29.71 in 5.6 mi Variable 3.5 mph - N/A   Mostly Cloudy
8:00 PM 84 °F - 79 °F 81% 29.75 in 6 mi Calm Calm - -   Haze
8:00 PM 84.2 °F 96.1 °F 78.8 °F 84% 29.74 in 5.6 mi Calm Calm - N/A   Mostly Cloudy
9:00 PM 82.4 °F 92.4 °F 78.8 °F 89% 29.77 in 5.0 mi Calm Calm - N/A   Mostly Cloudy
10:00 PM 82.4 °F 92.4 °F 78.8 °F 89% 29.80 in 3.7 mi Variable 2.3 mph - N/A   Mostly Cloudy
11:00 PM 82 °F - 79 °F 87% 29.82 in 5 mi Calm Calm - -   Haze
11:00 PM 82.4 °F 92.4 °F 78.8 °F 89% 29.80 in 5.0 mi Calm Calm - N/A   Mostly Cloudy